Погода в Хабаровске

Погода в Хабаровске : погода сейчас, прогноз погоды и архив. Всё, что Вы хотите узнать о погоде в Хабаровске!

Хотите узнать прогноз погоды в Хабаровске? Тогда Вам сюда: Погода в Хабаровске

Поиск расширенной информации на нашем сайте:

Другие новости

Новости СМИ2

Главная страница сайта

Новости сайта

03.07.2017

Напоминаем, что на нашем специализированном сайте Метеоцентр.Азия вы можете получить высокодетализированные автоматические прогнозы погоды по пунктам России, СНГ и мира в авиационном формате (включающие направление и скорость ветра, видимость, явления погоды, количество и форму облачности, нижнюю и верхнюю границу облачности).


Погода в Хабаровске - сегодня

Время (UTC), дата Ветер
(°,м/с) 
Видим.   Явления Облачность Т
(°С)
Тd
(°С)
f(%) Тe
(°С)
Pmin
(гПа)
dP
(гПа)
Po
(мм)
O2
(г/м3)
Тmin Tmax R s Состояние
почвы
03 14.06.18 100 (В) 10 км    9/0 верхняя 
[Ci fib]
+21 +4.4 34 +21  1014  -0.6  754  282           
06 14.06.18 150 (ЮВ) 10 км    3/3 1000 м 
[Cu med, cong]
+22.4 +5 32 +22  1012.6  -1.3  753  280           
12 14.06.18 040 (СВ) 10 км    9/0 верхняя 
[Ci fib]
+16.7 +7.4 54 +17  1013.8  1.6  754  285           
15 14.06.18 090 (В) 10 км    9/0 верхняя 
[Ci fib]
+12.7 +7.1 69 +13  1014.5  0.6  755  289           
18 14.06.18 130 (ЮВ) 10 км    9/0 средняя, верхняя 
[Ac trans|Ci fib]
+10.5 +6.5 76 +12  1015.1  0.5  755  292           
00 15.06.18 230 (ЮЗ) 10 км    9/3 1000 м средняя 
[Cu hum|Ac trans]
+17.8 +9.8 59 +20  1016.3  0.4  756  284           
03 15.06.18 340 (С) 10 км    9/5 1000 м кучево-дожд., средняя 
[Cb cap|Ac trans]
+18.7 +10.6 59 +21  1015.9  -0.4  756  283           
06 15.06.18 060 (СВ) 10 км    9/4 1000 м кучево-дожд., средняя, верхняя 
[Cb cap|Ac trans|Ci fib]
+20.8 +10.1 50 +22  1014.3  -1.6  755  281           
12 15.06.18 060 (СВ) 10 км    9/0 средняя, верхняя 
[Ac trans|Ci fib]
+17.3 +12 71 +22  1013.7  754  284           
15 15.06.18 тихо ()   10 км    9/0 средняя, верхняя 
[Ac trans|Ci fib]
+15.4 +12.4 82 +20  1013.5  -0.2  754  285           
00 16.06.18 200 (Ю) 10 км    10/4 1000 м кучево-дожд., средняя 
[Cb cap|Ac As]
+17.4 +11.9 70 +22  1012.6  -0.3  753  283           
03 16.06.18 130 (ЮВ) 10 км    10/5 1300 м кучево-дожд., средняя 
[Cb cap|Ac und]
+18.8 +11.9 64 +24  1011.8  -0.8  753  282           
06 16.06.18 160 (Ю) 10 км    9/4 1000 м средняя, верхняя 
[Cu hum|Ac trans|Ci fib]
+21.7 +10.9 50 +24  1008.8  -2.8  751  278           
12 16.06.18 080 (В) 10 км  слаб. ливневой дождь  9/4 1000 м кучево-дожд., средняя, верхняя 
[Cb cap|Ac trans|Ci fib]
+18 +14.7 81 +27  1005.9  -1.2  748  280           
15 16.06.18 160 (Ю) 10 км  слаб. ливневой дождь  10/4 1000 м кучево-дожд., средняя 
[Cb cap|Ac und]
+16.4 +14.6 89 +25  1004.6  -1.3  747  281           
18 16.06.18 170 (Ю) 10 км  {ливн. осадки}  9/3 1000 м кучево-дожд., средняя 
[Cb cap|Ac trans]
+16.2 +13.3 83 +22  1002.4  -2.2  746  281           
21 16.06.18 190 (Ю) 5000 м  слаб. ливневой дождь  10/6 600 м кучево-дожд., средняя 
[Cb cap|Ac As]
+14.3 +12.9 91 +19  1002.1  -0.2  745  283  +14.1       
12 17.06.18 170 (Ю) 10 км    1/1 1000 м 
[Sc]
+15.4 +14.2 93 +23  1004.1  1.2  747  282           
15 17.06.18 170 (Ю) 10 км    6/0 средняя 
[Ac trans]
+14.3 +13.8 97 +21  1003.9  -0.3  747  283           
18 17.06.18 190 (Ю) 10 км    5/0 средняя, верхняя 
[Ac trans|Ci fib]
+14.6 +13.9 96 +21  1003.4  -0.4  746  283           
00 18.06.18 190 (Ю) 10 км    9/1 1000 м средняя, верхняя 
[Sc|Ac trans|Ci fib]
+20.3 +15.8 75 +30  1004.4  0.4  747  277           
03 18.06.18 180 (Ю) 10 км    9/3 750 м кучево-дожд., средняя, верхняя 
[Cb cap|Ac trans|Ci fib]
+22.1 +15.6 67 +32  1003.6  -0.7  747  275           
06 18.06.18 190 (Ю) 10 км    9/4 1000 м кучево-дожд., средняя, верхняя 
[Cb cap|Ac trans|Ci fib]
+24.7 +14.2 52 +32  1002  -1.6  746  273           
12 18.06.18 050 (СВ) 10 км  слаб. ливневой дождь  10/4 1000 м кучево-дожд., средняя 
[Cb cap|Ac trans]
+17.4 +16.7 96 +30  1000.4  -0.8  744  278           
21 18.06.18 180 (Ю) 10 км  {ливн. осадки}  10/6 960 м кучево-дожд., средняя 
[Cb cap|Ac trans]
+18 +16 88 +29  996  -0.2  741  277  +16.5    36     
Время (UTC), дата Ветер
(°,м/с) 
Видим.   Явления Облачность Т
(°С)
Тd
(°С)
f(%) Тe
(°С)
Pmin
(гПа)
dP
(гПа)
Po
(мм)
O2
(г/м3)
Тmin Tmax R s Состояние
почвы

Для получения пояснительной информации подведите курсор к названию столбца.

ПОГОДА в Хабаровске - архив

Всё, что Вы хотите узнать о погоде в Хабаровске - удобно и подробно!

Выберите нужную дату (начиная с 1 января 2015* года) и нажмите кнопку "Найти".
Будут отображены архивные сводки погоды по пункту Хабаровск, начиная с указанной даты.


Отображать данные в формате CSV (для использования в таблицах Excel)


Внимание! Наш архив погоды предназначен исключительно для личного некоммерческого использования в познавательных целях. Если Вам необходимы официальные справки о состоянии погоды (для производственных, юридических, коммерческих и т.п. целей), обращайтесь в органы Росгидромета.

*Примечание: данная дата относится к архиву по метеостанциям СССР (Россия, СНГ, Балтия).
Архив по метеостанциям Зарубежной Европы и Азии (кроме Китая) хранится 10 дней, по другим регионам земного шара (Китай, Африка, Америка, Австралия, Океания) - 1 день.

Хабаровск - район местоположения метеостанции


Название, широта, долгота, высота метеостанции:
Хабаровск 48.5°ш. 135.2°д. 76 м над ур. моря [Российская Федерация]

Дополнительная информация

В oтличие oт бoльшинства пoгoдных сайтoв мы публикуем пoдрoбную метеoинфoрмацию в детальнoм прoфессиoнальнoм фoрмате.

Характеристики температуры и влажнoсти вoздуха измеряются на высoте 2 м в тени вдали oт зданий и деревьев.
Скoрoсть ветра измеряется на высoте 10 м (на урoвне рoста челoвека скoрoсть ветра ниже в 1.5-2 раза). Если метеoстанция нахoдится в гoрoде или в лесу, тo скoрoсть ветра занижена на 2-4 м/с пo сравнению с oткрытым местoм. Скoрoсть ветра над акватoриями крупных рек и oзёр, а также на вершинах хoлмoв на 2-5 м/с выше, чем в oбычных услoвиях.
Атмoсфернoе давление в разных тoчках местнoсти мoжет значительнo oтличаться oт давления на метеoстанции, в зависимoсти oт услoвий рельефа (при пoдъёме на 10 м давление пoнижается примернo на 1 мм рт.ст.).